Weather in Privetnoe

Ukraine / Volyn Oblast     50°38′25″N   24°44′52″E
temp.,
°C
wind,
m/s
gust,
m/s
humid.,
%
clouds,
%
prec.,
mm/h
press.,
hPa
HPBL,
m
10 august, wed
wed1000:00+16w2275100 0.0 102536
03:00+16n2368100 0.0 102475
06:00+15n3676100 0.0 1024199
09:00+17nne457276 0.1 1025386
12:00+19n556328 0.9 1024733
15:00+22ene244755 2.3 10231833
18:00+18e127039 0.6 1023214
21:00+17nne347493 0.7 102386
11 august, thu
thu1100:00+14nne338685 0.3 102342
03:00+13nne359233 0.3 102377
06:00+13nne379260 0.8 1022156
09:00+16nne388487 0.8 1022295
12:00+20ne785778 0.3 10221232
15:00+18nne5771100 0.6 1022686
18:00+17n358198 0.5 1021425
21:00+16nnw348885 0.6 102085
12 august, fri
fri1200:00+15n349377 0.2 102171
03:00+14nne369859 0.3 1020118
06:00+15ne3699100 0.0 1020168
09:00+17ene3594100 0.2 1020337
12:00+21ene457896 0.0 1020703
15:00+26ene675920 0.0 10191301
18:00+26ene675819 0.1 10191368
21:00+20ene498017 0.1 1019210
13 august, sat
sat1300:00+18ese239590 0.1 101947
03:00+17e2293100 0.1 101921
06:00+16ene379590 0.0 1019131
09:00+19ene598497 0.2 1018339
12:00+22e677098 0.2 1018956
15:00+20ne6982100 0.3 1017470
18:00+22ne6967100 0.0 1016932
21:00+18nne4983100 0.0 1015299
14 august, sun
sun1400:00+16ne4996100 0.3 1014253
03:00+16ne4896100 0.5 1013173
06:00+15nne369776 0.9 1013139
09:00+19ene4785100 1.3 1013367
12:00+23ene576793 0.9 1013857
15:00+26ne6659100 0.9 10121128
18:00+25ene5663100 0.0 10111008
21:00+21ne3684100 0.0 1011103